This is the latest recevied weather packets stored in our database for station/object KQ4PPF. If no packets are shown the sender has not sent any weather packets the latest 10 day(s).
| Time | Temp. | Humidity | Pressure | Rain* | Wind** | Luminosity | Snow |
|---|---|---|---|---|---|---|---|
| 1778097478 | 20° C | 99% | 1011.7 hPa | 0 mm | - | 32 W/m² | - |
| 1778097175 | 20° C | 99% | 1011.8 hPa | 0 mm | - | 46 W/m² | - |
| 1778096872 | 20.56° C | 99% | 1011.6 hPa | 0 mm | - | 131 W/m² | - |
| 1778096568 | 20.56° C | 99% | 1011.7 hPa | 0 mm | - | 146 W/m² | - |
| 1778096266 | 20° C | 99% | 1011.9 hPa | 0 mm | - | 243 W/m² | - |
| 1778095962 | 20° C | 99% | 1012.4 hPa | 0 mm | - | 99 W/m² | - |
| 1778095658 | 20° C | 99% | 1012.2 hPa | 0 mm | - | 86 W/m² | - |
| 1778095355 | 20° C | 99% | 1012.2 hPa | 0 mm | - | 37 W/m² | - |
| 1778095052 | 19.44° C | 99% | 1012.2 hPa | 0 mm | - | 26 W/m² | - |
| 1778094748 | 19.44° C | 99% | 1011.7 hPa | 0 mm | - | 24 W/m² | - |
| 1778094446 | 19.44° C | 99% | 1011.8 hPa | 0 mm | - | 21 W/m² | - |
| 1778094143 | 19.44° C | 99% | 1011.6 hPa | 0 mm | - | 18 W/m² | - |
| 1778093840 | 20° C | 99% | 1012.3 hPa | 0 mm | - | 28 W/m² | - |
| 1778093536 | 20° C | 98% | 1011.8 hPa | 0 mm | - | 17 W/m² | - |
| 1778093234 | 20° C | 98% | 1011.9 hPa | 0 mm | - | 10 W/m² | - |
| 1778092931 | 20° C | 98% | 1012.5 hPa | 0 mm | - | 12 W/m² | - |
| 1778092628 | 20° C | 98% | 1013.1 hPa | 0 mm | - | 24 W/m² | - |
| 1778092323 | 20° C | 98% | 1012.8 hPa | 0 mm | - | 22 W/m² | - |
| 1778092021 | 20° C | 97% | 1013 hPa | 0 mm | - | 17 W/m² | - |
| 1778091718 | 20° C | 97% | 1013.3 hPa | 0 mm | - | 11 W/m² | - |
| 1778091416 | 20° C | 97% | 1013.6 hPa | 0 mm | - | 5 W/m² | - |
| 1778091113 | 20.56° C | 96% | 1013.2 hPa | 0 mm | - | 15 W/m² | - |
| 1778090809 | 20.56° C | 95% | 1013.1 hPa | 0 mm | - | 27 W/m² | - |
| 1778090500 | 20.56° C | 94% | 1013.1 hPa | 0 mm | - | 18 W/m² | - |
| 1778090197 | 20.56° C | 93% | 1013.1 hPa | 0 mm | - | 30 W/m² | - |
* Rain latest hour (hover to see other rain measurements)
** Current wind speed in m/s (hover to see current wind gust speed)